Regional Weather Roundup
Issued by NWS

Home | Current Version | Previous Version | Graphics & Text | Print | Product List | Glossary On
Versions: 1 2 3 4 5 6 7 8 9 10 11 12 13 14 15 16 17 18 19 20 21 22 23 24 25 26 27 28 29 30 31 32 33 34 35 36 37 38 39 40 41 42 43 44 45 46 47 48 49 50
000
ASUS43 KBIS 290401
RWRND

NORTH DAKOTA REGIONAL WEATHER ROUNDUP
NATIONAL WEATHER SERVICE BISMARCK ND
1000 PM CST WED JAN 28 2015

NOTE: "FAIR" INDICATES FEW OR NO CLOUDS BELOW 12,000 FEET WITH NO
SIGNIFICANT WEATHER AND/OR OBSTRUCTIONS TO VISIBILITY.


NDZ001>003-009>011-017-290500-
NORTHWEST NORTH DAKOTA

CITY           SKY/WX    TMP DP  RH WIND       PRES   REMARKS
WILLISTON      CLOUDY    34  28  79 NW12      30.26R
MINOT          CLOUDY    29  26  89 NW16      30.18R WCI  17
MINOT AFB      CLOUDY    29  29  99 NW17      30.18R WCI  17
$$

NDZ018>021-031>035-040>046-290500-
SOUTHWEST NORTH DAKOTA

CITY           SKY/WX    TMP DP  RH WIND       PRES   REMARKS
BISMARCK       CLOUDY    33  28  81 NW24G33   30.19R
DICKINSON      CLOUDY    32  27  81 NW24      30.22R WCI  19
GARRISON         N/A     31  27  85 NW23      30.18R WCI  18
HETTINGER ARPT CLOUDY    32  26  78 NW25G33   30.25R WCI  19
$$

NDZ004>008-012>016-024-026-027-054-290500-
NORTHEAST NORTH DAKOTA

CITY           SKY/WX    TMP DP  RH WIND       PRES   REMARKS
GRAND FORKS    CLOUDY    26  22  84 N17G25    30.04R WCI  13
GRND FRKS AFB  CLOUDY    25  21  86 N16       30.05R WCI  12
DEVILS LAKE    CLOUDY    25  19  80 NW18G26   30.09R WCI  11
$$

NDZ022-023-025-028>030-036>039-047>053-290500-
SOUTHEAST NORTH DAKOTA

CITY           SKY/WX    TMP DP  RH WIND       PRES   REMARKS
FARGO          CLOUDY    31  28  89 N21       30.00R WCI  18
JAMESTOWN      CLOUDY    28  23  81 NW28G37   30.07R WCI  13
$$



USA.gov is the U.S. government's official web portal to all federal, state and local government web resources and services.